Regional Weather Roundup
Issued by NWS Cleveland, OH

Home | Current Version | Previous Version | Graphics & Text | Print | Product List | Glossary On
Versions: 1 2 3 4 5 6 7 8 9 10 11 12 13 14 15 16 17 18 19 20 21 22 23 24 25 26 27 28 29 30 31 32 33 34 35 36 37 38 39 40 41 42 43 44 45 46 47 48 49 50
000
ASUS41 KCLE 261910
RWRCLE
OHIO REGIONAL WEATHER ROUNDUP
NATIONAL WEATHER SERVICE WILMINGTON, OH
300 PM EDT MON JUN 26 2017

NOTE: "FAIR" INDICATES FEW OR NO CLOUDS BELOW 12,000 FEET WITH NO
SIGNIFICANT WEATHER AND/OR OBSTRUCTIONS TO VISIBILITY.

OHZ001>008-015>018-024>027-034-035-043-044-262000-
   NORTHWEST OHIO

CITY           SKY/WX    TMP DP  RH WIND       PRES   REMARKS
DEFIANCE       PTSUNNY   68  45  43 W10       30.06F
FINDLAY        PTSUNNY   72  44  36 W15G24    30.05F
TOLEDO EXPRESS PTSUNNY   69  44  40 SW22G28   30.04F
TOLEDO EXEC    PTSUNNY   71  45  39 W20G31    30.04F
LIMA           FAIR      71  46  40 W16       30.08F
$$

OHZ009>014-019>023-028>033-038-089-262000-
   NORTHEAST OHIO

CITY           SKY/WX    TMP DP  RH WIND       PRES   REMARKS
CLE-HOPKINS    PTSUNNY   73  49  42 W16G23    30.05F
CLE-LAKEFRONT  FAIR      69  53  56 W16G26    30.02F
CUY CO. ARPT   MOSUNNY   70  52  52 W17G23    30.04F
LORAIN-ELYRIA  FAIR      70  43  37 W13G25    30.04F
ASHTABULA      FAIR      68  52  56 NW14G26   30.03F
AKRON-CANTON   PTSUNNY   70  47  43 NW17      30.05S
WOOSTER        FAIR      70  46  42 W17       30.06F
MANSFIELD      FAIR      70  46  42 SW15      30.06F
YOUNGSTOWN     LGT RAIN  68  52  56 SW13      30.03S
$$

OHZ042-051>053-060>062-070>072-077>081-262000-
  SOUTHWEST OHIO

CITY           SKY/WX    TMP DP  RH WIND       PRES   REMARKS
CINC-COVINGTON PTSUNNY   73  49  42 NW12      30.14F
CINC-LUNKEN    PTSUNNY   72  50  45 NW9G20    30.14S
HAMILTON       PTSUNNY   72  50  45 W10       30.14S
DAYTON         PTSUNNY   70  46  42 NW14G22   30.13S
WRIGHT-PAT AFB DRIZZLE   71  44  38 W10       30.12R
DAYTON GENERAL FAIR      71  44  37 W12G23    30.13R
WILMINGTON     FAIR      70  49  47 W18       30.13S
$$

OHZ036-037-039>041-045>050-054>059-063>069-073>076-082>088-262000-
  CENTRAL AND SOUTHEAST OHIO

CITY           SKY/WX    TMP DP  RH WIND       PRES   REMARKS
COLUMBUS       PTSUNNY   70  48  45 NW13      30.09F
OSU AIRPORT    FAIR      68  48  48 W18       30.10S
BOLTON FIELD   MOSUNNY   72  48  43 W14G20    30.11S
RICKENBACK AFB FAIR      72  48  42 W15G22    30.10S
NEWARK         FAIR      74  42  31 W9        30.08F
MARION         FAIR      71  44  37 W13G22    30.08F
LANCASTER      FAIR      70  48  45 W14G20    30.11F
ZANESVILLE     PTSUNNY   71  50  47 W9G18     30.08F
NEW PHILLY     PTSUNNY   71  51  49 W12       30.08R
$$



USA.gov is the U.S. government's official web portal to all federal, state and local government web resources and services.